Location: Kopernik Observatory
(42.0014°N, 76.0372°W)
Time: 06:37:55
(UTC-04:00)

Daily predictions for brighter satellites

Satellite Brightness Start Highest point End
(mag) Time Altitude Azimuth Time Altitude Azimuth Time Altitude Azimuth
Cosmos 2227 Rocket 4.3 21:07:27 10° WSW 21:12:33 34° WNW 21:17:41 10° N
Cosmos 1867 3.6 21:07:40 10° SSW 21:13:07 86° ESE 21:18:36 10° NE
RESURS DK-1 3.2 21:10:23 10° N 21:14:18 38° ENE 21:18:11 10° SE
SJ-11-01 4.4 21:11:41 10° SSE 21:16:26 89° W 21:21:14 10° NNW
SAR-Lupe-1 4.4 21:15:06 10° SSE 21:18:36 53° ENE 21:22:08 10° N
Cosmos 1943 4.5 21:15:38 10° N 21:20:26 27° NE 21:25:13 10° ESE
Cosmos 1340 Rocket 3.8 21:17:42 10° SSW 21:21:38 52° WNW 21:25:39 10° N
Milstar 3 Cent rocket 4.3 21:17:14 10° WSW 21:22:31 24° S 21:30:57 10° SE
SL-16 R/B 2.9 21:18:34 10° NNW 21:24:06 55° WSW 21:29:35 10° S
Cosmos 371 Rocket 4.3 21:19:51 10° N 21:24:12 33° ENE 21:28:32 10° SE
Cosmos 2228 Rocket 4.5 21:22:07 10° NNE 21:25:54 25° ENE 21:29:38 10° SE
Resurs 01 Rocket 3.8 21:22:48 10° SSW 21:26:25 25° W 21:30:03 10° NW
Cosmos 1459 Rocket 4.0 21:21:05 10° N 21:27:22 71° E 21:33:31 10° SSE
Cosmos 1908 3.2 21:23:47 10° N 21:27:41 84° E 21:31:32 10° S
Cosmos 1939 Rocket 3.4 21:24:32 10° S 21:28:31 61° W 21:32:34 10° NNW
KORONAS-FOTON 3.8 21:31:02 10° S 21:34:46 62° E 21:38:32 10° NNE
CZ-3B R/B 3.9 21:33:17 10° SSW 21:36:11 65° SE 21:45:37 10° NE
Cosmos 2100 Rocket 4.1 21:32:36 10° N 21:38:59 89° W 21:45:21 10° S
H-2A R/B 3.2 21:36:46 11° SE 21:41:20 32° ENE 21:46:05 10° N
ERBS 2.6 21:39:02 10° NW 21:42:23 57° NE 21:45:11 14° ESE
Cosmos 1076 Rocket 3.8 21:38:37 10° SSW 21:42:58 74° W 21:47:20 10° N
GPS 2-05 Rocket1 4.1 21:41:25 10° SW 21:43:44 19° SSE 21:45:06 15° SE
Cosmos 2173 Rocket 4.1 21:39:19 10° N 21:45:32 86° W 21:51:48 10° S
Lacrosse 5 1.9 21:42:28 10° NW 21:47:34 81° SW 21:51:53 14° SE
Cosmos 2123 Rocket 4.2 21:42:39 10° SSE 21:48:37 52° E 21:54:36 10° NNE
SPOT 5 3.4 21:44:58 12° SE 21:49:16 49° ENE 21:54:14 10° N
SL-08 RB Rocket 4.3 21:47:43 13° SE 21:51:27 43° ENE 21:55:50 10° N
Cosmos 2061 Rocket 4.2 21:45:54 10° N 21:52:19 84° W 21:58:45 10° S
NOAA 11 4.2 21:47:40 10° SSE 21:53:05 85° ENE 21:58:34 10° NNW
Cosmos 2151 4.2 21:51:17 15° SE 21:53:53 26° E 21:57:28 10° NNE
Abrixas rocket 2.1 21:51:42 10° WNW 21:54:57 83° NNE 21:57:18 17° ESE
Cosmos 1408 Rocket 3.5 21:51:16 10° S 21:55:34 86° WNW 21:59:55 10° N
YAOGAN 6 3.9 21:53:22 10° SSW 21:56:48 38° W 22:00:17 10° NNW
MetOp-B 4.1 21:53:16 11° SSE 21:58:27 82° ENE 22:03:50 10° NNW
Cosmos 2221 4.2 21:55:05 10° NNW 21:59:02 33° W 22:02:56 10° SSW
BREEZE-M DEB (TANK) 3.9 21:59:02 10° WNW 22:01:01 27° N 22:05:05 10° ENE
Cosmos 1626 3.6 22:03:26 18° ESE 22:04:44 21° E 22:07:38 10° NE
Cosmos 1356 4.4 22:05:04 21° SE 22:06:39 31° E 22:09:46 10° NNE
Cosmos 1814 Rocket 4.0 22:02:02 10° NNW 22:07:25 85° ENE 22:11:34 17° SSE
Cosmos 1726 2.1 22:04:10 10° N 22:07:51 79° W 22:10:47 15° S
Cosmos 1725 Rocket 4.0 22:04:37 10° N 22:10:53 76° E 22:16:09 15° SSE
Cosmos 1763 Rocket 3.4 22:07:48 10° NNW 22:12:56 75° ENE 22:16:28 20° SSE
Cosmos 841 Rocket 3.7 22:07:55 10° NNW 22:13:07 59° ENE 22:16:36 20° SE
Terra 3.0 22:11:39 17° ESE 22:14:24 29° ENE 22:18:29 10° N
Cosmos 332 Rocket 4.1 22:10:57 10° NNW 22:15:49 66° WSW 22:19:41 16° S
Cosmos 1500 Rocket 3.7 22:13:37 17° SSE 22:16:55 56° E 22:21:17 10° NNE
Tiangong 1 0.6 22:14:33 10° W 22:17:21 78° SSW 22:18:28 32° ESE
Cosmos 2263 Rocket 2.3 22:12:11 10° S 22:17:36 55° ESE 22:23:03 10° NNE
Cosmos 1486 Rocket 4.0 22:12:39 10° SSW 22:17:54 75° ESE 22:23:12 10° NNE
Abrixas 2.0 22:19:31 10° WSW 22:22:12 82° SSE 22:24:55 10° ENE
Cosmos 1300 2.9 22:19:51 10° NNW 22:23:40 67° W 22:26:18 19° S
Meteor 1-27 4.4 22:21:38 10° N 22:27:25 65° ENE 22:31:05 23° SSE
IGS 5A 4.4 22:26:24 23° ESE 22:28:13 33° ENE 22:31:59 10° N
CARTOSAT-1 4.4 22:26:14 23° ESE 22:28:15 37° ENE 22:32:14 10° N
DMSP B5D2-2 4.3 22:23:18 10° NNE 22:28:23 49° E 22:31:32 22° SSE
USA 234 3.2 22:27:20 10° NE 22:33:50 63° SE 22:40:18 10° SW
SPOT 1/Viking Rocket 3.5 22:33:04 22° S 22:36:30 83° WSW 22:41:41 10° NNW
Cosmos 1328 Rocket 4.2 22:32:48 10° NNW 22:37:00 52° W 22:40:05 17° SSW
Cosmos 1151 Rocket 3.0 22:32:49 10° N 22:37:14 84° E 22:39:31 28° S
SL-14 R/B 4.3 22:36:19 10° SSW 22:40:08 45° WNW 22:43:55 10° N
Cosmos 1515 Rocket 3.9 22:41:09 10° NNW 22:45:26 59° W 22:47:59 23° SSW
CZ-4C R/B 2.9 22:46:15 28° SE 22:47:10 29° ESE 22:52:04 10° NE
H-2A R/B 2.5 22:47:34 32° ESE 22:49:06 46° ENE 22:53:08 10° N
Delta 2 Rocket 4.4 22:44:21 10° WSW 22:49:46 44° S 22:52:25 27° ESE
EO 1 Delta rocket 4.3 22:47:12 20° SSW 22:50:19 54° W 22:54:55 10° NNW
Cosmos 1844 Rocket 3.9 22:50:05 21° ESE 22:50:36 22° E 22:54:44 10° NE
ARGOS 4.1 22:46:39 14° SSW 22:50:56 42° W 22:56:04 10° NNW
Cosmos 2058 3.0 22:50:47 25° SSW 22:53:11 77° W 22:57:26 10° N
Cosmos 1455 2.3 22:52:37 10° N 22:56:28 61° E 22:57:20 46° SE
Meteor 2-12 Rocket 4.4 22:54:04 10° N 23:00:09 84° W 23:03:35 28° S
Cosmos 2233 Rocket 4.1 22:54:05 10° NNW 23:00:17 72° W 23:04:08 24° S
Cosmos 1503 Rocket 4.0 23:00:28 18° SSW 23:04:26 83° WNW 23:09:38 10° NNE
Cosmos 1943 3.9 22:59:17 10° NW 23:04:41 47° WSW 23:07:41 25° SSW
Cosmos 540 Rocket 3.4 23:01:19 10° NNW 23:06:30 83° ENE 23:08:29 38° SSE
CZ-4B R/B 4.0 23:03:19 10° NNE 23:08:22 45° E 23:09:44 37° SE
SME Rocket 3.8 23:11:22 33° ESE 23:12:26 40° ENE 23:16:59 10° N
Cosmos 968 Rocket 4.0 23:12:33 36° SE 23:13:30 39° ESE 23:18:22 10° NE
H-2A R/B 3.3 23:17:23 19° SSW 23:20:38 35° W 23:25:35 10° NNW
CZ-2C R/B 4.0 23:17:56 10° NE 23:21:50 21° E 23:22:07 20° E
Cosmos 1869 3.2 23:21:18 10° N 23:25:13 67° E 23:25:35 62° ESE
Sich 1 2.9 23:28:52 60° SE 23:29:25 69° E 23:33:41 10° NNE
Lacrosse 5 4.1 23:27:38 10° W 23:29:46 13° WSW 23:31:05 12° SW
Cosmos 1513 Rocket 4.4 23:31:44 10° N 23:37:58 85° E 23:40:12 42° SSE
Cosmos 1400 Rocket 3.6 23:38:32 38° E 23:38:32 38° E 23:42:09 10° NNE
Cosmos 1626 4.2 23:38:03 16° WSW 23:39:59 23° WNW 23:42:59 10° NNW
CZ-4C R/B 3.4 23:40:16 64° SE 23:40:53 79° ENE 23:45:19 10° N
Cosmos 292 Rocket 4.2 23:36:57 10° N 23:41:37 50° ENE 23:42:36 43° ESE
Cosmos 1707 Rocket 3.8 23:43:05 10° NNW 23:47:30 62° W 23:48:18 51° SW
deb Chang Zheng 4 4.2 23:43:28 10° N 23:47:43 52° WNW 23:49:17 34° SW
Cosmos 2278 Rocket 3.3 23:51:08 28° ESE 23:51:08 28° ESE 23:55:49 10° NE
Terra 3.1 23:50:32 25° SW 23:52:03 30° W 23:56:16 10° NW
ALOS 2 3.7 23:52:39 31° E 23:53:15 32° ENE 23:57:09 10° N
